FLOCK JD

Last updated on Mon May 23 2016 20:36:32 GMT+0100 (British Summer Time)

1 41483U 98067ID 16144.46856135 .00018817 00000-0 27680-3 0 9995 2 41483 51.6428 181.3097 0003785 14.1473 67.9174 15.55481271 801

Satellite not in orbit